Date String (YYYY-MM-DD hh:mm:ss) UTC,Instrument flags,Ambient pressure (hPa),Sample flow (lpm),Bypass flow (lpm),Sample temperature (°C),Ambient temperature (°C),ASC tube jacket temperature (°C),LED temperature (°C),Box temperature (°C),Sample RH (%),Span deviation,Mass concentration (μg/m³),Mass concentration (μg/m³),Mass concentration (μg/m³)
DateTimeUTC,F1_M11,P_M11,Q1_M11,Q2_M11,T1_M11,T2_M11,T3_M11,T4_M11,T5_M11,U1_M11,ZSPAN_M11,X0_M11,X2_M11,X1_M11
2022-08-10 10:00:00,,0833.2,5.00,0.00,29.7,28.5,00.0,38.5,31.6,26.1,0000.0,0011.33,0005.54,0004.56
2022-08-10 10:01:00,,0833.2,5.00,0.00,29.7,28.6,00.0,38.5,31.7,26.1,0000.0,0011.61,0005.55,0004.57
2022-08-10 10:02:00,,0833.3,4.99,0.00,29.8,28.7,00.0,38.5,31.7,26.0,0000.0,0012.07,0005.52,0004.58
2022-08-10 10:03:00,,0833.3,5.00,0.00,29.8,28.7,00.0,38.5,31.7,26.0,0000.0,0012.52,0005.54,0004.59
2022-08-10 10:04:00,,0833.3,5.00,0.00,29.8,28.8,00.0,38.6,31.7,25.9,0000.0,0012.43,0005.53,0004.60
2022-08-10 10:05:00,,0833.3,5.01,0.00,29.8,28.8,00.0,38.6,31.8,25.9,0000.0,0012.56,0005.56,0004.61
2022-08-10 10:06:00,,0833.3,4.99,0.00,29.9,28.9,00.0,38.6,31.8,25.8,0000.0,0013.50,0005.56,0004.63
2022-08-10 10:07:00,,0833.3,5.00,0.00,29.9,28.9,00.0,38.6,31.8,25.8,0000.0,0013.93,0005.54,0004.65
2022-08-10 10:08:00,,0833.3,5.00,0.00,29.9,28.5,00.0,38.6,31.7,25.8,0000.0,0014.17,0005.57,0004.67
2022-08-10 10:09:00,,0833.3,5.01,0.00,29.8,27.8,00.0,38.5,31.5,25.9,0000.0,0013.57,0005.56,0004.66
2022-08-10 10:10:00,,0833.2,4.99,0.00,29.8,27.6,00.0,38.5,31.4,25.9,0000.0,0013.18,0005.50,0004.67
2022-08-10 10:11:00,,0833.2,5.01,0.00,29.7,27.6,00.0,38.5,31.4,26.1,0000.0,0013.30,0005.53,0004.69
2022-08-10 10:12:00,,0833.2,5.00,0.00,29.6,27.6,00.0,38.5,31.4,26.2,0000.0,0013.18,0005.53,0004.68
2022-08-10 10:13:00,,0833.1,5.01,0.00,29.6,27.7,00.0,38.5,31.4,26.2,0000.0,0012.96,0005.54,0004.68
2022-08-10 10:14:00,,0833.2,5.00,0.00,29.6,27.9,00.0,38.5,31.4,26.3,0000.0,0012.47,0005.54,0004.67
2022-08-10 10:15:00,,0833.2,5.00,0.00,29.6,28.0,00.0,38.5,31.5,26.2,0000.0,0012.46,0005.54,0004.66
2022-08-10 10:16:00,,0833.2,5.00,0.00,29.6,28.1,00.0,38.5,31.5,26.1,0000.0,0012.30,0005.49,0004.65
2022-08-10 10:17:00,,0833.2,5.00,0.00,29.6,28.2,00.0,38.5,31.5,26.2,0000.0,0011.55,0005.48,0004.64
2022-08-10 10:18:00,,0833.2,5.00,0.00,29.6,28.3,00.0,38.5,31.5,26.2,0000.0,0011.01,0005.43,0004.62
2022-08-10 10:19:00,,0833.2,5.00,0.00,29.7,28.4,00.0,38.5,31.6,25.9,0000.0,0010.79,0005.40,0004.61
2022-08-10 10:20:00,,0833.2,5.00,0.00,29.7,28.5,00.0,38.5,31.6,25.9,0000.0,0010.67,0005.36,0004.61
2022-08-10 10:21:00,,0833.3,5.00,0.00,29.7,28.6,00.0,38.5,31.7,26.0,0000.0,0010.45,0005.36,0004.60
2022-08-10 10:22:00,,0833.3,5.00,0.00,29.7,28.6,00.0,38.5,31.7,26.1,0000.0,0010.12,0005.33,0004.59
2022-08-10 10:23:00,,0833.3,5.00,0.00,29.8,28.7,00.0,38.5,31.7,26.1,0000.0,0009.72,0005.32,0004.60
2022-08-10 10:24:00,,0833.2,5.00,0.00,29.8,28.7,00.0,38.5,31.7,26.0,0000.0,0009.40,0005.34,0004.61
2022-08-10 10:25:00,,0833.2,5.00,0.00,29.8,28.8,00.0,38.6,31.7,26.0,0000.0,0009.41,0005.34,0004.61
2022-08-10 10:26:00,,0833.3,5.00,0.00,29.8,28.8,00.0,38.6,31.8,26.0,0000.0,0010.06,0005.38,0004.62
2022-08-10 10:27:00,,0833.3,5.00,0.00,29.9,28.9,00.0,38.6,31.8,26.0,0000.0,0010.29,0005.40,0004.65
2022-08-10 10:28:00,,0833.3,5.00,0.00,29.9,28.9,00.0,38.6,31.9,25.9,0000.0,0010.33,0005.43,0004.66
2022-08-10 10:29:00,,0833.3,5.00,0.00,29.9,28.9,00.0,38.6,31.9,25.9,0000.0,0010.35,0005.45,0004.66
2022-08-10 10:30:00,,0833.3,4.99,0.00,29.9,28.7,00.0,38.6,31.8,25.9,0000.0,0010.45,0005.48,0004.68
2022-08-10 10:31:00,,0833.3,4.99,0.00,29.9,28.0,00.0,38.6,31.7,25.9,0000.0,0010.55,0005.53,0004.69
2022-08-10 10:32:00,,0833.3,5.00,0.00,29.8,27.6,00.0,38.6,31.5,25.9,0000.0,0010.50,0005.52,0004.70
2022-08-10 10:33:00,,0833.2,5.00,0.00,29.7,27.5,00.0,38.6,31.4,26.3,0000.0,0010.42,0005.49,0004.71
2022-08-10 10:34:00,,0833.3,5.01,0.00,29.7,27.6,00.0,38.5,31.4,26.3,0000.0,0010.61,0005.50,0004.72
2022-08-10 10:35:00,,0833.3,4.99,0.00,29.7,27.7,00.0,38.5,31.4,26.2,0000.0,0010.94,0005.49,0004.72
2022-08-10 10:36:00,,0833.3,5.00,0.00,29.6,27.8,00.0,38.5,31.4,26.2,0000.0,0010.82,0005.47,0004.72
2022-08-10 10:37:00,,0833.3,5.01,0.00,29.6,27.9,00.0,38.5,31.5,26.2,0000.0,0010.26,0005.45,0004.72
2022-08-10 10:38:00,,0833.4,4.99,0.00,29.6,28.1,00.0,38.5,31.5,26.2,0000.0,0011.04,0005.44,0004.71
2022-08-10 10:39:00,,0833.4,5.00,0.00,29.6,28.2,00.0,38.5,31.5,26.4,0000.0,0010.90,0005.43,0004.71
2022-08-10 10:40:00,,0833.4,5.00,0.00,29.7,28.3,00.0,38.5,31.5,26.3,0000.0,0010.72,0005.42,0004.71
2022-08-10 10:41:00,,0833.4,5.00,0.00,29.7,28.4,00.0,38.5,31.6,26.2,0000.0,0010.64,0005.40,0004.69
2022-08-10 10:42:00,,0833.3,5.01,0.00,29.7,28.4,00.0,38.5,31.6,26.3,0000.0,0010.57,0005.36,0004.68
2022-08-10 10:43:00,,0833.2,5.00,0.00,29.7,28.5,00.0,38.5,31.6,26.2,0000.0,0010.59,0005.34,0004.67
2022-08-10 10:44:00,,0833.3,5.00,0.00,29.7,28.6,00.0,38.5,31.7,26.1,0000.0,0011.00,0005.40,0004.66
2022-08-10 10:45:00,,0833.3,5.00,0.00,29.7,28.6,00.0,38.5,31.7,26.1,0000.0,0011.04,0005.39,0004.64
2022-08-10 10:46:00,,0833.3,5.00,0.00,29.8,28.7,00.0,38.5,31.7,26.0,0000.0,0011.52,0005.41,0004.65
2022-08-10 10:47:00,,0833.3,5.00,0.00,29.8,28.7,00.0,38.6,31.8,25.9,0000.0,0011.60,0005.42,0004.65
2022-08-10 10:48:00,,0833.3,4.99,0.00,29.8,28.8,00.0,38.6,31.8,25.9,0000.0,0011.56,0005.38,0004.64
2022-08-10 10:49:00,,0833.4,5.02,0.00,29.8,28.8,00.0,38.6,31.8,26.0,0000.0,0010.52,0005.36,0004.64
2022-08-10 10:50:00,,0833.4,5.01,0.00,29.9,28.9,00.0,38.6,31.8,25.8,0000.0,0010.34,0005.35,0004.64
2022-08-10 10:51:00,,0833.4,4.99,0.00,29.9,28.9,00.0,38.6,31.8,25.9,0000.0,0010.48,0005.36,0004.64
2022-08-10 10:52:00,,0833.4,5.00,0.00,29.9,28.9,00.0,38.7,31.9,26.6,0000.0,0010.64,0005.41,0004.65
2022-08-10 10:53:00,,0833.4,5.00,0.00,29.9,29.0,00.0,38.7,31.9,26.4,0000.0,0010.79,0005.48,0004.68
2022-08-10 10:54:00,,0833.4,4.99,0.00,30.0,28.8,00.0,38.7,31.9,26.6,0000.0,0011.02,0005.56,0004.72
2022-08-10 10:55:00,,0833.4,5.01,0.00,29.9,28.0,00.0,38.6,31.7,26.8,0000.0,0011.10,0005.62,0004.75
2022-08-10 10:56:00,,0833.5,5.01,0.00,29.8,27.6,00.0,38.6,31.5,26.9,0000.0,0011.40,0005.71,0004.80
2022-08-10 10:57:00,,0833.5,4.99,0.00,29.7,27.5,00.0,38.6,31.4,27.1,0000.0,0010.81,0005.72,0004.83
2022-08-10 10:58:00,,0833.5,5.00,0.00,29.7,27.6,00.0,38.6,31.4,27.3,0000.0,0010.66,0005.72,0004.87
2022-08-10 10:59:00,,0833.6,5.00,0.00,29.7,27.7,00.0,38.5,31.4,27.5,0000.0,0010.62,0005.78,0004.92
